ギャラッド彗星

436P/Garradd (2021)

English version
Home page
Updated on February 5, 2022

---------------------------------------------------------------------

・ プロフィール

符号 436P/2021 U2
検出日 2021年10月24日、8月15日
検出光度 19.4等、20.2等
検出者 T. Prystavski (Ukraine), J. Drummond (Gisborne, New Zealand)

・ 写真集

・ 軌道要素

Epoch 2022 Jan. 21.0 TT = JDT 2459600.5
T 2021 Dec. 8.50614 TT                                  Rudenko
q   1.9576189            (2000.0)            P               Q
n   0.06824381     Peri.  282.59608     +0.92543331     -0.15657386
a   5.9305350      Node    87.19082     +0.29276896     +0.87355859
e   0.6699085      Incl.   20.21004     -0.24054006     +0.46084706
P  14.4
From 111 observations 2007 Aug. 12-2022 Jan. 5, mean residual 0".8.

・ 光度変化

        m1 = 15.0 + 5 logΔ + 10.0 log r

---------------------------------------------------------------------

軌道要素はM.P.E.C. 2022-C56に掲載されたものです。
光度グラフはComet for Windowsで作成したものです。

---------------------------------------------------------------------

Copyright(C) Seiichi Yoshida (comet@aerith.net). All rights reserved.